Location: �bnet
(46.9957°N, 8.4908°E)
Time: 14:43:58
(UTC+00:00)

OE (NEXTSAT) - Pass Details

Date: 11 May 2021
Orbit: 425 x 432 km, 46.0° (Epoch: 17 June)

Event Time Altitude Azimuth Distance (km) Brightness Sun altitude
Rises 19:56:13 0° 276° (W) 2,396 9.1 -10.1°
Reaches altitude 10° 19:58:21 10° 273° (W) 1,529 7.9 -10.4°
Maximum altitude 20:01:46 60° 193° (SSW) 496 4.4 -10.8°
Enters shadow 20:04:17 17° 115° (ESE) 1,177 5.9 -11.2°
